Weather in Gaborone

Botswana     24˚39′30″S   25˚54′43″E
temp.,
°C
wind,
m/s
gust,
m/s
humid.,
%
clouds,
%
prec.,
mm/h
press.,
hPa
HPBL,
m
27 november, fri
fri2723:00+23˚ene247229 0.0 1013152
02:00+22˚e116715 0.0 101239
05:00+21˚ese22710 0.0 101339
08:00+26˚ne46570 0.0 1015719
11:00+32˚nne563537 0.1 10132058
14:00+34˚n432525 0.1 10113133
17:00+34˚n22228 0.0 10103248
20:00+30˚nne242839 0.0 1012177
28 november, sat
sat2823:00+27˚ne6124727 0.0 1014955
02:00+23˚ne8136645 0.0 1015954
05:00+21˚ne8137244 0.0 1016962
08:00+22˚nne8126662 0.0 10181048
11:00+28˚nne7104368 0.0 10151505
14:00+32˚nne683256 0.0 10112602
17:00+32˚n452748 0.0 10102773
20:00+21˚sse587374 2.4 1012241
29 november, sun
sun2923:00+21˚ese247668 0.1 1013278
02:00+19˚se248367 1.8 1012310
05:00+19˚ne168999 1.1 1013322
08:00+23˚nne357185 1.9 1014595
11:00+29˚nnw4543100 0.0 10121631
14:00+31˚nw333592 0.0 10092158
17:00+32˚nnw333042 0.0 10072657
20:00+26˚se235257 0.4 1010156
30 november, mon
mon3023:00+21˚sw228095 5.3 1011109
02:00+21˚e348292 5.5 1010227
05:00+21˚nne267785 0.0 1011294
08:00+23˚nne697361 0.0 1012731
11:00+29˚nne57526 0.0 10111356
14:00+30˚ne444518 1.1 10081638
17:00+23˚ne477565 4.7 1007228
20:00+21˚e377045 4.8 1009324
1 december, tue
tue123:00+21˚ne397323 0.0 1011427
02:00+20˚n487832 0.0 1010335
05:00+20˚ene247788 0.0 1010181
08:00+23˚ene236861 0.0 1010483
11:00+29˚n32450 0.0 10081160
14:00+33˚n21280 0.0 10052102
17:00+30˚sse673133 0.1 1005515
20:00+24˚se685050 0.4 1009645